Terug naar catalogus

STARLINK-34287

ActiefCommunicatieVLEO
NORAD 64670·PAYLOAD·🇺🇸 United States

Gelanceerd Jun 28, 2025 vanaf Cape Canaveral Space Force Station

Loading…

Volgende Passages (komende 24 uur)

TLE

VersSource: CelesTrak SupGP

Epoch: Sep 15, 2026, 02:27 UTC

1 64670C 25139G   26258.10256944  .00061903  00000+0  18287-2 0  2581
2 64670  53.1591 323.0019 0001211  87.7642 278.2746 15.34363927    16

Volg STARLINK-34287 in realtime met AllMySat

Download on the App Store